Weather History for Gainesville, TX

Change the Weather History Date:

Tuesday, January 8, 2013

  Actual Average (KDTO) Record (KDTO)
Temperature  
Mean Temperature 40 °F -  
Max Temperature 44 °F 53 °F 78 °F (2006)
Min Temperature 35 °F 32 °F 27 °F (2005)
Degree Days  
Heating Degree Days 26    
Moisture  
Dew Point 39 °F    
Average Humidity 88    
Maximum Humidity 100    
Minimum Humidity 70    
Precipitation  
Precipitation 0.42 in - - ()
Sea Level Pressure  
Sea Level Pressure 30.09 in    
Wind  
Wind Speed 5 mph (ENE)    
Max Wind Speed 9 mph    
Max Gust Speed -    
Visibility 7 miles    
Events Rain    
Averages and records for this station are not official NWS values.
T = Trace of Precipitation, MM = Missing Value Source: NWS Daily Summary

Daily Weather History Graph

Daily Weather History Graph

Search for Another Location

Airport:

Trip Planner

Search our weather history database for the weather conditions in past years. The results will help you decide how hot, cold, wet, or windy it might be!

Date:

Astronomy

Jan. 08, 2013 Rise Set
Actual Time 7:34 AM CST 5:37 PM CST
Civil Twilight 7:06 AM CST 6:04 PM CST
Nautical Twilight 6:35 AM CST 6:35 PM CST
Astronomical Twilight 6:05 AM CST 7:05 PM CST
Moon 4:09 AM CST (1/8) 2:40 PM CST (1/8)
Length of Visible Light 10h 58m
Length of Day
10h 03m
Waning Crescent, 13% of the Moon is Illuminated
Jan 8
Waning Crescent
Jan 11
New
Jan 18
First Quarter
Jan 26
Full
Feb 3
Last Quarter

Hourly Weather History & Observations

Time (CST) Temp. Windchill Dew Point Humidity Pressure Visibility Wind Dir Wind Speed Gust Speed Precip Events Conditions
12:15 AM 37.4 °F 34.9 °F 30.2 °F 75% 30.12 in 10.0 mi SE 3.5 mph - N/A   Mostly Cloudy
12:35 AM 37.4 °F 34.9 °F 32.0 °F 81% 30.12 in 10.0 mi SE 3.5 mph - N/A   Overcast
12:55 AM 37.4 °F 32.8 °F 32.0 °F 81% 30.11 in 10.0 mi SE 5.8 mph - N/A   Overcast
1:15 AM 37.4 °F 32.8 °F 32.0 °F 81% 30.12 in 10.0 mi SE 5.8 mph - N/A   Overcast
1:35 AM 39.2 °F 35.0 °F 32.0 °F 75% 30.12 in 10.0 mi ESE 5.8 mph - N/A   Overcast
1:55 AM 37.4 °F 32.8 °F 32.0 °F 81% 30.12 in 10.0 mi ESE 5.8 mph - N/A   Overcast
2:15 AM 37.4 °F 34.9 °F 32.0 °F 81% 30.11 in 10.0 mi ESE 3.5 mph - N/A   Scattered Clouds
2:35 AM 37.4 °F 34.9 °F 32.0 °F 81% 30.11 in 10.0 mi ENE 3.5 mph - N/A   Scattered Clouds
2:55 AM 37.4 °F 34.9 °F 32.0 °F 81% 30.10 in 10.0 mi ENE 3.5 mph - N/A   Scattered Clouds
3:15 AM 35.6 °F 31.7 °F 32.0 °F 87% 30.10 in 10.0 mi ENE 4.6 mph - N/A   Mostly Cloudy
3:35 AM 37.4 °F 34.9 °F 32.0 °F 81% 30.10 in 10.0 mi NE 3.5 mph - N/A   Overcast
3:55 AM 37.4 °F 34.9 °F 32.0 °F 81% 30.10 in 10.0 mi East 3.5 mph - N/A   Overcast
4:15 AM 37.4 °F - 32.0 °F 81% 30.10 in 10.0 mi Calm Calm - N/A   Overcast
4:35 AM 37.4 °F - 32.0 °F 81% 30.10 in 10.0 mi Calm Calm - N/A   Overcast
4:55 AM 39.2 °F 37.0 °F 32.0 °F 75% 30.09 in 10.0 mi ESE 3.5 mph - N/A   Overcast
5:15 AM 39.2 °F - 32.0 °F 75% 30.09 in 10.0 mi Calm Calm - N/A   Overcast
5:35 AM 41.0 °F 39.0 °F 32.0 °F 70% 30.10 in 10.0 mi East 3.5 mph - N/A   Overcast
5:55 AM 41.0 °F 39.0 °F 32.0 °F 70% 30.10 in 10.0 mi East 3.5 mph - N/A   Overcast
6:15 AM 41.0 °F 38.0 °F 33.8 °F 76% 30.10 in 10.0 mi East 4.6 mph - N/A   Overcast
6:35 AM 42.8 °F 40.1 °F 33.8 °F 70% 30.10 in 10.0 mi East 4.6 mph - N/A   Overcast
6:55 AM 42.8 °F 40.1 °F 33.8 °F 70% 30.10 in 10.0 mi East 4.6 mph - N/A   Overcast
7:15 AM 42.8 °F 40.1 °F 33.8 °F 70% 30.10 in 10.0 mi East 4.6 mph - N/A   Overcast
7:35 AM 42.8 °F 39.3 °F 33.8 °F 70% 30.10 in 10.0 mi East 5.8 mph - N/A   Overcast
7:55 AM 42.8 °F 40.1 °F 33.8 °F 70% 30.10 in 10.0 mi ESE 4.6 mph - N/A   Overcast
8:15 AM 44.6 °F 43.1 °F 35.6 °F 71% 30.10 in 10.0 mi East 3.5 mph - N/A   Overcast
8:35 AM 44.6 °F 43.1 °F 35.6 °F 71% 30.12 in 10.0 mi SE 3.5 mph - N/A   Overcast
8:55 AM 44.6 °F 43.1 °F 35.6 °F 71% 30.12 in 10.0 mi ESE 3.5 mph - N/A   Overcast
9:15 AM 44.6 °F 40.7 °F 35.6 °F 71% 30.12 in 10.0 mi ESE 6.9 mph - N/A   Overcast
9:35 AM 44.6 °F 41.4 °F 35.6 °F 71% 30.12 in 10.0 mi ESE 5.8 mph - N/A   Overcast
9:55 AM 44.6 °F 41.4 °F 35.6 °F 71% 30.13 in 10.0 mi SE 5.8 mph - N/A   Overcast
10:15 AM 44.6 °F 41.4 °F 37.4 °F 76% 30.13 in 10.0 mi ESE 5.8 mph - N/A   Light Drizzle
10:35 AM 44.6 °F 40.7 °F 37.4 °F 76% 30.14 in 10.0 mi SSE 6.9 mph - N/A   Overcast
10:55 AM 42.8 °F 40.1 °F 41.0 °F 93% 30.12 in 4.0 mi ESE 4.6 mph - N/A   Drizzle
11:15 AM 42.8 °F 41.1 °F 41.0 °F 93% 30.12 in 4.0 mi ESE 3.5 mph - 0.02 in Rain Light Rain
11:35 AM 42.8 °F - 41.0 °F 93% 30.11 in 4.0 mi Calm Calm - 0.02 in   Drizzle
11:55 AM 42.8 °F 41.1 °F 41.0 °F 93% 30.10 in 3.0 mi NNW 3.5 mph - 0.03 in   Drizzle
12:15 PM 42.8 °F 41.1 °F 41.0 °F 93% 30.07 in 2.0 mi NNE 3.5 mph - 0.01 in   Drizzle
12:35 PM 42.8 °F 40.1 °F 41.0 °F 93% 30.07 in 2.5 mi NNE 4.6 mph - 0.02 in Rain Light Rain
12:55 PM 44.6 °F 40.2 °F 42.8 °F 93% 30.04 in 2.5 mi North 8.1 mph - 0.05 in Rain Rain
1:15 PM 42.8 °F 39.3 °F 42.8 °F 100% 30.03 in 2.0 mi North 5.8 mph - N/A   Light Drizzle
1:35 PM 44.6 °F 40.7 °F 44.6 °F 100% 30.02 in 1.0 mi NNE 6.9 mph - 0.08 in Rain Light Rain
1:55 PM 44.6 °F 41.4 °F 44.6 °F 100% 30.02 in 2.0 mi North 5.8 mph - 0.10 in Rain Light Rain
2:15 PM 44.6 °F 41.4 °F 44.6 °F 100% 30.01 in 2.0 mi NNE 5.8 mph - N/A Rain Light Rain
2:35 PM 44.6 °F 41.4 °F 44.6 °F 100% 30.00 in 3.0 mi NE 5.8 mph - N/A   Overcast
2:55 PM 44.6 °F 42.2 °F 44.6 °F 100% 30.01 in 3.0 mi NE 4.6 mph - 0.03 in Rain Rain
3:15 PM 44.6 °F 41.4 °F 44.6 °F 100% 30.01 in 2.5 mi East 5.8 mph - 0.01 in Rain Light Rain
3:35 PM 44.6 °F 43.1 °F 44.6 °F 100% 30.03 in 2.5 mi ENE 3.5 mph - N/A Rain Rain
3:55 PM 44.6 °F 43.1 °F 44.6 °F 100% 30.04 in 3.0 mi NE 3.5 mph - 0.03 in   Light Drizzle
4:15 PM 44.6 °F 42.2 °F 44.6 °F 100% 30.03 in 2.0 mi NNE 4.6 mph - N/A   Light Drizzle
4:35 PM 44.6 °F 40.2 °F 44.6 °F 100% 30.03 in 2.0 mi ENE 8.1 mph - N/A   Light Drizzle
4:55 PM 44.6 °F 39.7 °F 44.6 °F 100% 30.03 in 1.8 mi ENE 9.2 mph - N/A Rain Light Rain
5:15 PM 44.6 °F 39.7 °F 44.6 °F 100% 30.04 in 5.0 mi NE 9.2 mph - 0.01 in   Light Drizzle
5:35 PM 44.6 °F 39.7 °F 44.6 °F 100% 30.04 in 10.0 mi NE 9.2 mph - 0.01 in   Overcast
5:55 PM 44.6 °F 39.7 °F 44.6 °F 100% 30.05 in 10.0 mi ENE 9.2 mph - 0.01 in   Overcast
6:15 PM 44.6 °F 39.7 °F 44.6 °F 100% 30.04 in 10.0 mi NE 9.2 mph - N/A   Overcast
6:35 PM 44.6 °F 42.2 °F 44.6 °F 100% 30.07 in 10.0 mi NE 4.6 mph - N/A   Overcast
6:55 PM 44.6 °F 42.2 °F 44.6 °F 100% 30.07 in 4.0 mi NNE 4.6 mph - N/A   Overcast
7:15 PM 44.6 °F 41.4 °F 44.6 °F 100% 30.07 in 3.0 mi NNE 5.8 mph - N/A   Overcast
7:35 PM 44.6 °F 40.2 °F 42.8 °F 93% 30.06 in 5.0 mi NNE 8.1 mph - N/A   Overcast
7:55 PM 42.8 °F 38.6 °F 42.8 °F 100% 30.05 in 7.0 mi NNE 6.9 mph - N/A   Overcast
8:15 PM 42.8 °F 40.1 °F 42.8 °F 100% 30.07 in 10.0 mi NNE 4.6 mph - N/A   Overcast
8:35 PM 44.6 °F 41.4 °F 42.8 °F 93% 30.08 in 7.0 mi ENE 5.8 mph - N/A Rain Light Rain
8:55 PM 44.6 °F 40.2 °F 44.6 °F 100% 30.07 in 3.0 mi ENE 8.1 mph - 0.03 in Rain Rain
9:15 PM 44.6 °F 41.4 °F 44.6 °F 100% 30.10 in 2.5 mi NW 5.8 mph - 0.06 in Rain Light Rain
9:35 PM 44.6 °F 42.2 °F 44.6 °F 100% 30.10 in 5.0 mi North 4.6 mph - 0.13 in Rain Rain
9:55 PM 44.6 °F 41.4 °F 44.6 °F 100% 30.12 in 7.0 mi NNW 5.8 mph - 0.13 in Rain Light Rain
10:15 PM 44.6 °F 40.7 °F 44.6 °F 100% 30.13 in 7.0 mi NNW 6.9 mph - 0.01 in Rain Light Rain
10:35 PM 44.6 °F 42.2 °F 44.6 °F 100% 30.13 in 5.0 mi North 4.6 mph - 0.01 in Rain Light Rain
10:55 PM 44.6 °F 40.7 °F 44.6 °F 100% 30.12 in 4.0 mi NNE 6.9 mph - 0.01 in Rain Light Rain
11:15 PM 44.6 °F 40.7 °F 44.6 °F 100% 30.12 in 4.0 mi NNE 6.9 mph - N/A   Overcast
11:35 PM 44.6 °F 40.7 °F 44.6 °F 100% 30.13 in 7.0 mi NNE 6.9 mph - N/A   Overcast
11:55 PM 44.6 °F 41.4 °F 44.6 °F 100% 30.13 in 7.0 mi North 5.8 mph - N/A   Overcast